Regional Weather Roundup
Issued by NWS

Home | Current Version | Previous Version | Graphics & Text | Print | Product List | Glossary On
Versions: 1 2 3 4 5 6 7 8 9 10 11 12 13 14 15 16 17 18 19 20 21 22 23 24 25 26 27 28 29 30 31 32 33 34 35 36 37 38 39 40 41 42 43 44 45 46 47 48 49 50
000
ASUS43 KLOT 041908
RWRIL

ILLINOIS REGIONAL WEATHER ROUNDUP
NATIONAL WEATHER SERVICE CHICAGO/ROMEOVILLE IL
200 PM CDT FRI SEP 04 2015

NOTE: "FAIR" INDICATES FEW OR NO CLOUDS BELOW 12,000 FEET WITH NO
SIGNIFICANT WEATHER AND/OR OBSTRUCTIONS TO VISIBILITY.

* THESE STATIONS ARE NOT UNDER NWS QUALITY CONTROL. THEY ALSO MAY NOT
  REPORT WEATHER SUCH AS PRECIPITATION OR FOG.

ILZ001-002-007-009-015-016-024-042000-
NORTHWEST ILLINOIS

CITY           SKY/WX    TMP DP  RH WIND       PRES   REMARKS
MOLINE         MOSUNNY   91  69  48 CALM      29.98F HX  96
STERLING*      SUNNY     93  72  49 CALM      29.98F HX 100
SAVANNA*       SUNNY     89  67  49 SW5       29.99F HX  92
$$

ILZ003-004-008-010-011-017-018-042000-
NORTH CENTRAL ILLINOIS

CITY           SKY/WX    TMP DP  RH WIND       PRES   REMARKS
ROCKFORD       MOSUNNY   86  72  62 CALM      30.01F HX  92
FREEPORT*      SUNNY     84  73  69 CALM      30.03S HX  90
ROCHELLE*      SUNNY     86  73  66 SW5       30.01F HX  93
DE KALB*       MOSUNNY   85  74  69 SE5       30.02F HX  92
PERU*          MOSUNNY   90  65  43 W6        30.00F HX  91
$$

ILZ005-006-012>014-019>023-042000-
NORTHEAST ILLINOIS

CITY           SKY/WX    TMP DP  RH WIND       PRES   REMARKS
CHICAGO-OHARE  MOSUNNY   84  69  60 E6        30.00F HX  88
CHICAGO-MIDWAY MOSUNNY   85  68  56 E7        30.00F HX  88
AURORA         SUNNY     86  73  65 VRB5      30.01F HX  93
LANSING*       MOSUNNY   82  69  64 NE7       30.01F HX  86
JOLIET*        SUNNY     89  73  58 SW5       30.00F HX  96
WAUKEGAN       MOSUNNY   73  66  78 NE8       30.03S
DUPAGE AIRPORT MOSUNNY   85  70  60 CALM      30.00F HX  89
KANKAKEE*      SUNNY     91  72  52 NW7       30.01S HX  98
WHEELING       MOSUNNY   80  67  64 NE7       30.03F HX  82
MORRIS*        SUNNY     88  72  60 W3        29.99F HX  94
ROMEOVILLE*    SUNNY     87  69  54 NW3       30.01F HX  91
NORTHERLY ISL    N/A     73  67  81 N9          N/A
$$

LMZ740>746-042000-
SOUTHERN LAKE MICHIGAN

STATION/POSITION SKY/WX   TEMP    WIND        PRES    VSBY  WAVE
                          AIR SEA DIR/SP/G                  HT/PER
                          (F)     (DEG/KT/KT) (MB)    (MI)  (FT/S)
SOUTHERN BUOY              68 71  330/  6/  6 1016.6S         1
WILMETTE HARBOR            68 71  210/  6/  8   N/A           1/ 4
HARRISON CRIB              69     360/  9/ 10   N/A
BURNHAM HARBOR             72      20/  9/ 10   N/A
CALUMET HARBOR             73      20/  8/ 11   N/A
BURNS HARBOR               72      30/  7/ 11 1017.6S
MICHIGAN CITY              71     360/  8/  9   N/A
MICHIGAN CITY 6N           72 74   30/  6/  8   N/A           1/ 4
ST. JOSEPH                 71 77   30/  8/ 10   N/A           1/ 4
$$

ILZ025>027-034>036-040-047-049-050-058-095>099-042000-
WEST-CENTRAL ILLINOIS

CITY           SKY/WX    TMP DP  RH WIND       PRES   REMARKS
QUINCY         MOSUNNY   92  65  40 SW5       30.00F HX  94
GALESBURG*     MOSUNNY   90  68  48 CALM      29.99F HX  93
MACOMB*        MOSUNNY   91  68  47 SW3       30.01F HX  94
JACKSONVILLE*  SUNNY     94  67  40 S9        30.00F HX  97
PITTSFIELD*    MOSUNNY   92  65  41 S7        30.01F HX  94
$$

ILZ028>032-037-038-041>044-048-051>054-059>061-042000-
CENTRAL ILLINOIS

CITY           SKY/WX    TMP DP  RH WIND       PRES   REMARKS
PONTIAC        MOSUNNY   91  71  50 W5        30.00F HX  97
BLOOMINGTON    MOSUNNY   93  69  45 SW9       30.02F HX  98
DECATUR        MOSUNNY   92  66  42 SW7       30.01F HX  94
PEORIA         MOSUNNY   93  67  42 VRB3      29.99F HX  96
LACON*         MOSUNNY   89  68  49 SW5       29.98F HX  93
LINCOLN*       MOSUNNY   95  65  36 S6        29.98F HX  97
SPRINGFIELD    MOSUNNY   95  66  38 VRB5      29.99F HX  98
TAYLORVILLE    MOSUNNY   91  66  43 CALM      30.01F HX  94
$$

ILZ033-039-045-046-055>057-062-063-042000-
EAST-CENTRAL ILLINOIS

CITY           SKY/WX    TMP DP  RH WIND       PRES   REMARKS
CHAMPAIGN      MOSUNNY   90  67  46 SW6       30.02F HX  93
MATTOON        MOSUNNY   92  65  40 VRB7      30.01F HX  94
PARIS*         MOSUNNY   93  67  42 W9        30.02F HX  97
$$

ILZ079-100>102-042000-
SOUTHWEST ILLINOIS

CITY           SKY/WX    TMP DP  RH WIND       PRES   REMARKS
ALTON          MOSUNNY   91  68  46 SW8       30.01F HX  95
BELLEVILLE     MOSUNNY   91  71  51 VRB2      30.00F HX  98
CAHOKIA*       SUNNY     93  68  43 S5        30.00F HX  97
SPARTA*        SUNNY     90  71  53 SW7       30.03F HX  96
$$

ILZ064>066-069>071-074>076-080>082-084>086-088>090-092>094-042000-
SOUTH-CENTRAL ILLINOIS

CITY           SKY/WX    TMP DP  RH WIND       PRES   REMARKS
CARBONDALE     MOSUNNY   90  70  51 S6        30.02F HX  95
CAIRO*         MOSUNNY   89  73  58 CALM      30.02F HX  97
EFFINGHAM*     PTSUNNY   92  62  35 S7        30.04S HX  92
MARION         MOSUNNY   91  68  46 S6        30.04S HX  95
MT. VERNON     SUNNY     93  70  46 S7        30.03F HX  99
CENTRALIA*     SUNNY     92  71  49 SW3       30.02F HX  98
SALEM*         MOSUNNY   93  68  44 S3        30.02F HX  97
METROPOLIS*    MOSUNNY   92  69  45 S3        30.03F HX  97
$$

ILZ067-068-072-073-078-083-087-091-042000-
SOUTHEAST ILLINOIS

CITY           SKY/WX    TMP DP  RH WIND       PRES   REMARKS
LAWRENCEVILLE  MOSUNNY   93  65  39 W5        30.02F HX  95
FLORA*         SUNNY     93  64  37 S7        30.02F HX  94
FAIRFIELD*     MOSUNNY   92  67  43 CALM      30.01F HX  94
HARRISBURG*    PTSUNNY   93  67  41 S6        30.02F HX  97
ROBINSON*      MOSUNNY   92  67  43 S3        30.03F HX  95
CARMI*         MOSUNNY   92  70  49 SW6       30.02S HX  98
$$

ABBREVIATIONS USED IN REMARKS
   TC - TEMPERATURE IN CELSIUS
  WCI - WIND CHILL INDEX
   HX - HEAT INDEX
  VSB - VISIBILITY
$$




USA.gov is the U.S. government's official web portal to all federal, state and local government web resources and services.